Year,Month,Day,Hour,Minute,Value (Times are PST for temperature in C)
2006,06,27,00,00,14.50
2006,06,27,00,01,14.50
2006,06,27,00,02,14.50
2006,06,27,00,03,14.50
2006,06,27,00,04,14.50
2006,06,27,00,05,14.40
2006,06,27,00,06,14.40
2006,06,27,00,07,14.40
2006,06,27,00,08,14.40
2006,06,27,00,09,14.30
2006,06,27,00,10,14.30
2006,06,27,00,11,14.30
2006,06,27,00,12,14.20
2006,06,27,00,13,14.20
2006,06,27,00,14,14.20
2006,06,27,00,15,14.10
2006,06,27,00,16,14.00
2006,06,27,00,17,14.00
2006,06,27,00,18,13.90
2006,06,27,00,19,13.80
2006,06,27,00,20,13.80
2006,06,27,00,21,13.70
2006,06,27,00,22,13.70
2006,06,27,00,23,13.70
2006,06,27,00,24,13.60
2006,06,27,00,25,13.60
2006,06,27,00,26,13.60
2006,06,27,00,27,13.60
2006,06,27,00,28,13.50
2006,06,27,00,29,13.50
2006,06,27,00,30,13.50
2006,06,27,00,31,13.50
2006,06,27,00,32,13.40
2006,06,27,00,33,13.40
2006,06,27,00,34,13.40
2006,06,27,00,35,13.30
2006,06,27,00,36,13.30
2006,06,27,00,37,13.30
2006,06,27,00,38,13.30
2006,06,27,00,39,13.30
2006,06,27,00,40,13.20
2006,06,27,00,41,13.20
2006,06,27,00,42,13.10
2006,06,27,00,43,13.00
2006,06,27,00,44,13.00
2006,06,27,00,45,12.90
2006,06,27,00,46,12.80
2006,06,27,00,47,12.80
2006,06,27,00,48,12.70
2006,06,27,00,49,12.70
2006,06,27,00,50,12.60
2006,06,27,00,51,12.60
2006,06,27,00,52,12.60
2006,06,27,00,53,12.50
2006,06,27,00,54,12.50
2006,06,27,00,55,12.50
2006,06,27,00,56,12.50
2006,06,27,00,57,12.40
2006,06,27,00,58,12.40
2006,06,27,00,59,12.40
2006,06,27,01,00,12.40
2006,06,27,01,01,12.40
2006,06,27,01,02,12.40
2006,06,27,01,03,12.40
2006,06,27,01,04,12.40
2006,06,27,01,05,12.40
2006,06,27,01,06,12.40
2006,06,27,01,07,12.40
2006,06,27,01,08,12.40
2006,06,27,01,09,12.30
2006,06,27,01,10,12.30
2006,06,27,01,11,12.30
2006,06,27,01,12,12.30
2006,06,27,01,13,12.30
2006,06,27,01,14,12.30
2006,06,27,01,15,12.30
2006,06,27,01,16,12.30
2006,06,27,01,17,12.30
2006,06,27,01,18,12.30
2006,06,27,01,19,12.30
2006,06,27,01,20,12.30
2006,06,27,01,21,12.30
2006,06,27,01,22,12.20
2006,06,27,01,23,12.20
2006,06,27,01,24,12.20
2006,06,27,01,25,12.20
2006,06,27,01,26,12.20
2006,06,27,01,27,12.20
2006,06,27,01,28,12.30
2006,06,27,01,29,12.30
2006,06,27,01,30,12.30
2006,06,27,01,31,12.30
2006,06,27,01,32,12.30
2006,06,27,01,33,12.30
2006,06,27,01,34,12.30
2006,06,27,01,35,12.30
2006,06,27,01,36,12.30
2006,06,27,01,37,12.30
2006,06,27,01,38,12.30
2006,06,27,01,39,12.40
2006,06,27,01,40,12.40
2006,06,27,01,41,12.40
2006,06,27,01,42,12.40
2006,06,27,01,43,12.40
2006,06,27,01,44,12.40
2006,06,27,01,45,12.40
2006,06,27,01,46,12.40
2006,06,27,01,47,12.40
2006,06,27,01,48,12.40
2006,06,27,01,49,12.40
2006,06,27,01,50,12.40
2006,06,27,01,51,12.40
2006,06,27,01,52,12.40
2006,06,27,01,53,12.40
2006,06,27,01,54,12.40
2006,06,27,01,55,12.40
2006,06,27,01,56,12.40
2006,06,27,01,57,12.40
2006,06,27,01,58,12.40
2006,06,27,01,59,12.40
2006,06,27,02,00,12.40
2006,06,27,02,01,12.40
2006,06,27,02,02,12.40
2006,06,27,02,03,12.40
2006,06,27,02,04,12.40
2006,06,27,02,05,12.40
2006,06,27,02,06,12.40
2006,06,27,02,07,12.30
2006,06,27,02,08,12.30
2006,06,27,02,09,12.30
2006,06,27,02,10,12.30
2006,06,27,02,11,12.30
2006,06,27,02,12,12.30
2006,06,27,02,13,12.30
2006,06,27,02,14,12.30
2006,06,27,02,15,12.30
2006,06,27,02,16,12.30
2006,06,27,02,17,12.30
2006,06,27,02,18,12.30
2006,06,27,02,19,12.30
2006,06,27,02,20,12.30
2006,06,27,02,21,12.30
2006,06,27,02,22,12.30
2006,06,27,02,23,12.30
2006,06,27,02,24,12.30
2006,06,27,02,25,12.40
2006,06,27,02,26,12.40
2006,06,27,02,27,12.40
2006,06,27,02,28,12.40
2006,06,27,02,29,12.40
2006,06,27,02,30,12.40
2006,06,27,02,31,12.40
2006,06,27,02,32,12.30
2006,06,27,02,33,12.30
2006,06,27,02,34,12.30
2006,06,27,02,35,12.30
2006,06,27,02,36,12.30
2006,06,27,02,37,12.20
2006,06,27,02,38,12.20
2006,06,27,02,39,12.20
2006,06,27,02,40,12.20
2006,06,27,02,41,12.20
2006,06,27,02,42,12.20
2006,06,27,02,43,12.20
2006,06,27,02,44,12.20
2006,06,27,02,45,12.20
2006,06,27,02,46,12.20
2006,06,27,02,47,12.30
2006,06,27,02,48,12.30
2006,06,27,02,49,12.30
2006,06,27,02,50,12.30
2006,06,27,02,51,12.30
2006,06,27,02,52,12.30
2006,06,27,02,53,12.30
2006,06,27,02,54,12.20
2006,06,27,02,55,12.20
2006,06,27,02,56,12.20
2006,06,27,02,57,12.10
2006,06,27,02,58,12.10
2006,06,27,02,59,12.10
2006,06,27,03,00,12.10
2006,06,27,03,01,12.00
2006,06,27,03,02,12.00
2006,06,27,03,03,12.10
2006,06,27,03,04,12.10
2006,06,27,03,05,12.10
2006,06,27,03,06,12.00
2006,06,27,03,07,12.00
2006,06,27,03,08,12.00
2006,06,27,03,09,12.00
2006,06,27,03,10,12.00
2006,06,27,03,11,12.00
2006,06,27,03,12,12.10
2006,06,27,03,13,12.10
2006,06,27,03,14,12.10
2006,06,27,03,15,12.10
2006,06,27,03,16,12.10
2006,06,27,03,17,12.10
2006,06,27,03,18,12.10
2006,06,27,03,19,12.20
2006,06,27,03,20,12.20
2006,06,27,03,21,12.20
2006,06,27,03,22,12.20
2006,06,27,03,23,12.20
2006,06,27,03,24,12.20
2006,06,27,03,25,12.20
2006,06,27,03,26,12.20
2006,06,27,03,27,12.10
2006,06,27,03,28,12.10
2006,06,27,03,29,12.10
2006,06,27,03,30,12.10
2006,06,27,03,31,12.10
2006,06,27,03,32,12.00
2006,06,27,03,33,12.00
2006,06,27,03,34,12.00
2006,06,27,03,35,12.00
2006,06,27,03,36,12.00
2006,06,27,03,37,12.00
2006,06,27,03,38,12.00
2006,06,27,03,39,11.90
2006,06,27,03,40,11.90
2006,06,27,03,41,11.90
2006,06,27,03,42,11.80
2006,06,27,03,43,11.80
2006,06,27,03,44,11.80
2006,06,27,03,45,11.80
2006,06,27,03,46,11.80
2006,06,27,03,47,11.80
2006,06,27,03,48,11.80
2006,06,27,03,49,11.80
2006,06,27,03,50,11.80
2006,06,27,03,51,11.70
2006,06,27,03,52,11.70
2006,06,27,03,53,11.70
2006,06,27,03,54,11.80
2006,06,27,03,55,11.80
2006,06,27,03,56,11.80
2006,06,27,03,57,11.80
2006,06,27,03,58,11.80
2006,06,27,03,59,11.80
2006,06,27,04,00,11.80
2006,06,27,04,01,11.80
2006,06,27,04,02,11.80
2006,06,27,04,03,11.80
2006,06,27,04,04,11.80
2006,06,27,04,05,11.80
2006,06,27,04,06,11.80
2006,06,27,04,07,11.70
2006,06,27,04,08,11.70
2006,06,27,04,09,11.60
2006,06,27,04,10,11.60
2006,06,27,04,11,11.60
2006,06,27,04,12,11.60
2006,06,27,04,13,11.50
2006,06,27,04,14,11.40
2006,06,27,04,15,11.40
2006,06,27,04,16,11.40
2006,06,27,04,17,11.40
2006,06,27,04,18,11.40
2006,06,27,04,19,11.40
2006,06,27,04,20,11.40
2006,06,27,04,21,11.40
2006,06,27,04,22,11.40
2006,06,27,04,23,11.40
2006,06,27,04,24,11.40
2006,06,27,04,25,11.40
2006,06,27,04,26,11.40
2006,06,27,04,27,11.40
2006,06,27,04,28,11.40
2006,06,27,04,29,11.40
2006,06,27,04,30,11.40
2006,06,27,04,31,11.40
2006,06,27,04,32,11.40
2006,06,27,04,33,11.40
2006,06,27,04,34,11.40
2006,06,27,04,35,11.50
2006,06,27,04,36,11.60
2006,06,27,04,37,11.60
2006,06,27,04,38,11.60
2006,06,27,04,39,11.60
2006,06,27,04,40,11.70
2006,06,27,04,41,11.70
2006,06,27,04,42,11.70
2006,06,27,04,43,11.70
2006,06,27,04,44,11.60
2006,06,27,04,45,11.60
2006,06,27,04,46,11.60
2006,06,27,04,47,11.60
2006,06,27,04,48,11.60
2006,06,27,04,49,11.60
2006,06,27,04,50,11.50
2006,06,27,04,51,11.60
2006,06,27,04,52,11.60
2006,06,27,04,53,11.50
2006,06,27,04,54,11.40
2006,06,27,04,55,11.40
2006,06,27,04,56,11.40
2006,06,27,04,57,11.40
2006,06,27,04,58,11.40
2006,06,27,04,59,11.30
2006,06,27,05,00,11.30
2006,06,27,05,01,11.40
2006,06,27,05,02,11.30
2006,06,27,05,03,11.30
2006,06,27,05,04,11.30
2006,06,27,05,05,11.30
2006,06,27,05,06,11.30
2006,06,27,05,07,11.30
2006,06,27,05,08,11.30
2006,06,27,05,09,11.20
2006,06,27,05,10,11.20
2006,06,27,05,11,11.20
2006,06,27,05,12,11.20
2006,06,27,05,13,11.10
2006,06,27,05,14,11.10
2006,06,27,05,15,11.10
2006,06,27,05,16,11.10
2006,06,27,05,17,11.10
2006,06,27,05,18,11.10
2006,06,27,05,19,11.10
2006,06,27,05,20,11.00
2006,06,27,05,21,11.10
2006,06,27,05,22,11.10
2006,06,27,05,23,11.10
2006,06,27,05,24,11.10
2006,06,27,05,25,11.10
2006,06,27,05,26,11.00
2006,06,27,05,27,10.90
2006,06,27,05,28,10.90
2006,06,27,05,29,10.90
2006,06,27,05,30,10.90
2006,06,27,05,31,10.90
2006,06,27,05,32,11.00
2006,06,27,05,33,11.10
2006,06,27,05,34,11.10
2006,06,27,05,35,11.10
2006,06,27,05,36,11.20
2006,06,27,05,37,11.20
2006,06,27,05,38,11.20
2006,06,27,05,39,11.20
2006,06,27,05,40,11.20
2006,06,27,05,41,11.10
2006,06,27,05,42,11.10
2006,06,27,05,43,11.10
2006,06,27,05,44,11.10
2006,06,27,05,45,11.10
2006,06,27,05,46,11.10
2006,06,27,05,47,11.10
2006,06,27,05,48,11.10
2006,06,27,05,49,11.10
2006,06,27,05,50,11.20
2006,06,27,05,51,11.20
2006,06,27,05,52,11.20
2006,06,27,05,53,11.20
2006,06,27,05,54,11.20
2006,06,27,05,55,11.20
2006,06,27,05,56,11.20
2006,06,27,05,57,11.30
2006,06,27,05,58,11.30
2006,06,27,05,59,11.30
2006,06,27,06,00,11.40
2006,06,27,06,01,11.40
2006,06,27,06,02,11.40
2006,06,27,06,03,11.40
2006,06,27,06,04,11.40
2006,06,27,06,05,11.40
2006,06,27,06,06,11.40
2006,06,27,06,07,11.40
2006,06,27,06,08,11.40
2006,06,27,06,09,11.40
2006,06,27,06,10,11.40
2006,06,27,06,11,11.40
2006,06,27,06,12,11.40
2006,06,27,06,13,11.50
2006,06,27,06,14,11.60
2006,06,27,06,15,11.60
2006,06,27,06,16,11.70
2006,06,27,06,17,11.80
2006,06,27,06,18,11.80
2006,06,27,06,19,11.80
2006,06,27,06,20,11.80
2006,06,27,06,21,11.90
2006,06,27,06,22,11.90
2006,06,27,06,23,12.00
2006,06,27,06,24,12.00
2006,06,27,06,25,12.10
2006,06,27,06,26,12.10
2006,06,27,06,27,12.10
2006,06,27,06,28,12.10
2006,06,27,06,29,12.20
2006,06,27,06,30,12.20
2006,06,27,06,31,12.30
2006,06,27,06,32,12.30
2006,06,27,06,33,12.30
2006,06,27,06,34,12.30
2006,06,27,06,35,12.40
2006,06,27,06,36,12.50
2006,06,27,06,37,12.50
2006,06,27,06,38,12.60
2006,06,27,06,39,12.60
2006,06,27,06,40,12.70
2006,06,27,06,41,12.70
2006,06,27,06,42,12.80
2006,06,27,06,43,12.80
2006,06,27,06,44,12.80
2006,06,27,06,45,12.80
2006,06,27,06,46,12.80
2006,06,27,06,47,12.80
2006,06,27,06,48,12.90
2006,06,27,06,49,12.90
2006,06,27,06,50,12.90
2006,06,27,06,51,13.00
2006,06,27,06,52,13.00
2006,06,27,06,53,13.10
2006,06,27,06,54,13.10
2006,06,27,06,55,13.20
2006,06,27,06,56,13.30
2006,06,27,06,57,13.30
2006,06,27,06,58,13.30
2006,06,27,06,59,13.30
2006,06,27,07,00,13.30
2006,06,27,07,01,13.30
2006,06,27,07,02,13.30
2006,06,27,07,03,13.30
2006,06,27,07,04,13.30
2006,06,27,07,05,13.30
2006,06,27,07,06,13.30
2006,06,27,07,07,13.30
2006,06,27,07,08,13.30
2006,06,27,07,09,13.30
2006,06,27,07,10,13.30
2006,06,27,07,11,13.40
2006,06,27,07,12,13.40
2006,06,27,07,13,13.50
2006,06,27,07,14,13.50
2006,06,27,07,15,13.60
2006,06,27,07,16,13.60
2006,06,27,07,17,13.70
2006,06,27,07,18,13.70
2006,06,27,07,19,13.70
2006,06,27,07,20,13.80
2006,06,27,07,21,13.90
2006,06,27,07,22,13.90
2006,06,27,07,23,14.00
2006,06,27,07,24,14.10
2006,06,27,07,25,14.10
2006,06,27,07,26,14.20
2006,06,27,07,27,14.30
2006,06,27,07,28,14.30
2006,06,27,07,29,14.30
2006,06,27,07,30,14.30
2006,06,27,07,31,14.30
2006,06,27,07,32,14.30
2006,06,27,07,33,14.30
2006,06,27,07,34,14.40
2006,06,27,07,35,14.50
2006,06,27,07,36,14.50
2006,06,27,07,37,14.60
2006,06,27,07,38,14.60
2006,06,27,07,39,14.70
2006,06,27,07,40,14.80
2006,06,27,07,41,14.80
2006,06,27,07,42,14.90
2006,06,27,07,43,15.00
2006,06,27,07,44,15.10
2006,06,27,07,45,15.20
2006,06,27,07,46,15.20
2006,06,27,07,47,15.30
2006,06,27,07,48,15.40
2006,06,27,07,49,15.50
2006,06,27,07,50,15.50
2006,06,27,07,51,15.60
2006,06,27,07,52,15.60
2006,06,27,07,53,15.60
2006,06,27,07,54,15.50
2006,06,27,07,55,15.50
2006,06,27,07,56,15.40
2006,06,27,07,57,15.40
2006,06,27,07,58,15.30
2006,06,27,07,59,15.30
2006,06,27,08,00,15.30
2006,06,27,08,01,15.30
2006,06,27,08,02,15.30
2006,06,27,08,03,15.20
2006,06,27,08,04,15.30
2006,06,27,08,05,15.30
2006,06,27,08,06,15.30
2006,06,27,08,07,15.40
2006,06,27,08,08,15.50
2006,06,27,08,09,15.60
2006,06,27,08,10,15.60
2006,06,27,08,11,15.70
2006,06,27,08,12,15.80
2006,06,27,08,13,16.00
2006,06,27,08,14,16.10
2006,06,27,08,15,16.30
2006,06,27,08,16,16.30
2006,06,27,08,17,16.40
2006,06,27,08,18,16.40
2006,06,27,08,19,16.40
2006,06,27,08,20,16.30
2006,06,27,08,21,16.30
2006,06,27,08,22,16.40
2006,06,27,08,23,16.40
2006,06,27,08,24,16.50
2006,06,27,08,25,16.60
2006,06,27,08,26,16.70
2006,06,27,08,27,16.70
2006,06,27,08,28,16.70
2006,06,27,08,29,16.70
2006,06,27,08,30,16.70
2006,06,27,08,31,16.70
2006,06,27,08,32,16.70
2006,06,27,08,33,16.80
2006,06,27,08,34,16.80
2006,06,27,08,35,16.80
2006,06,27,08,36,16.80
2006,06,27,08,37,16.80
2006,06,27,08,38,16.80
2006,06,27,08,39,16.80
2006,06,27,08,40,16.90
2006,06,27,08,41,17.00
2006,06,27,08,42,17.00
2006,06,27,08,43,16.90
2006,06,27,08,44,17.00
2006,06,27,08,45,17.00
2006,06,27,08,46,17.10
2006,06,27,08,47,17.20
2006,06,27,08,48,17.30
2006,06,27,08,49,17.40
2006,06,27,08,50,17.50
2006,06,27,08,51,17.50
2006,06,27,08,52,17.50
2006,06,27,08,53,17.40
2006,06,27,08,54,17.40
2006,06,27,08,55,17.40
2006,06,27,08,56,17.30
2006,06,27,08,57,17.30
2006,06,27,08,58,17.30
2006,06,27,08,59,17.30
2006,06,27,09,00,17.30
2006,06,27,09,01,17.30
2006,06,27,09,02,17.30
2006,06,27,09,03,17.40
2006,06,27,09,04,17.60
2006,06,27,09,05,17.70
2006,06,27,09,06,17.80
2006,06,27,09,07,17.90
2006,06,27,09,08,17.90
2006,06,27,09,09,17.90
2006,06,27,09,10,17.90
2006,06,27,09,11,17.80
2006,06,27,09,12,17.80
2006,06,27,09,13,17.90
2006,06,27,09,14,17.80
2006,06,27,09,15,17.80
2006,06,27,09,16,17.70
2006,06,27,09,17,17.70
2006,06,27,09,18,17.80
2006,06,27,09,19,17.80
2006,06,27,09,20,17.80
2006,06,27,09,21,17.90
2006,06,27,09,22,17.90
2006,06,27,09,23,17.90
2006,06,27,09,24,17.90
2006,06,27,09,25,17.90
2006,06,27,09,26,17.90
2006,06,27,09,27,17.90
2006,06,27,09,28,17.90
2006,06,27,09,29,17.90
2006,06,27,09,30,18.00
2006,06,27,09,31,18.10
2006,06,27,09,32,18.10
2006,06,27,09,33,18.20
2006,06,27,09,34,18.20
2006,06,27,09,35,18.20
2006,06,27,09,36,18.20
2006,06,27,09,37,18.20
2006,06,27,09,38,18.20
2006,06,27,09,39,18.30
2006,06,27,09,40,18.30
2006,06,27,09,41,18.20
2006,06,27,09,42,18.20
2006,06,27,09,43,18.20
2006,06,27,09,44,18.20
2006,06,27,09,45,18.20
2006,06,27,09,46,18.20
2006,06,27,09,47,18.20
2006,06,27,09,48,18.40
2006,06,27,09,49,18.40
2006,06,27,09,50,18.40
2006,06,27,09,51,18.30
2006,06,27,09,52,18.30
2006,06,27,09,53,18.30
2006,06,27,09,54,18.30
2006,06,27,09,55,18.30
2006,06,27,09,56,18.30
2006,06,27,09,57,18.30
2006,06,27,09,58,18.30
2006,06,27,09,59,18.30
2006,06,27,10,00,18.30
2006,06,27,10,01,18.40
2006,06,27,10,02,18.40
2006,06,27,10,03,18.30
2006,06,27,10,04,18.40
2006,06,27,10,05,18.40
2006,06,27,10,06,18.40
2006,06,27,10,07,18.40
2006,06,27,10,08,18.40
2006,06,27,10,09,18.40
2006,06,27,10,10,18.40
2006,06,27,10,11,18.50
2006,06,27,10,12,18.70
2006,06,27,10,13,18.70
2006,06,27,10,14,18.80
2006,06,27,10,15,18.80
2006,06,27,10,16,18.90
2006,06,27,10,17,18.90
2006,06,27,10,18,18.90
2006,06,27,10,19,18.90
2006,06,27,10,20,18.90
2006,06,27,10,21,18.90
2006,06,27,10,22,19.00
2006,06,27,10,23,19.00
2006,06,27,10,24,18.90
2006,06,27,10,25,18.90
2006,06,27,10,26,18.90
2006,06,27,10,27,19.00
2006,06,27,10,28,19.10
2006,06,27,10,29,19.10
2006,06,27,10,30,19.10
2006,06,27,10,31,19.10
2006,06,27,10,32,19.10
2006,06,27,10,33,19.00
2006,06,27,10,34,18.90
2006,06,27,10,35,18.90
2006,06,27,10,36,19.00
2006,06,27,10,37,19.00
2006,06,27,10,38,18.90
2006,06,27,10,39,19.00
2006,06,27,10,40,19.00
2006,06,27,10,41,19.00
2006,06,27,10,42,19.00
2006,06,27,10,43,19.10
2006,06,27,10,44,19.10
2006,06,27,10,45,19.00
2006,06,27,10,46,19.10
2006,06,27,10,47,19.10
2006,06,27,10,48,19.10
2006,06,27,10,49,19.10
2006,06,27,10,50,19.10
2006,06,27,10,51,19.10
2006,06,27,10,52,19.10
2006,06,27,10,53,19.10
2006,06,27,10,54,19.10
2006,06,27,10,55,19.20
2006,06,27,10,56,19.20
2006,06,27,10,57,19.30
2006,06,27,10,58,19.40
2006,06,27,10,59,19.50
2006,06,27,11,00,19.60
2006,06,27,11,01,19.70
2006,06,27,11,02,19.70
2006,06,27,11,03,19.70
2006,06,27,11,04,19.70
2006,06,27,11,05,19.70
2006,06,27,11,06,19.80
2006,06,27,11,07,19.80
2006,06,27,11,08,19.80
2006,06,27,11,09,19.70
2006,06,27,11,10,19.60
2006,06,27,11,11,19.50
2006,06,27,11,12,19.30
2006,06,27,11,13,19.40
2006,06,27,11,14,19.50
2006,06,27,11,15,19.50
2006,06,27,11,16,19.40
2006,06,27,11,17,19.40
2006,06,27,11,18,19.50
2006,06,27,11,19,19.60
2006,06,27,11,20,19.70
2006,06,27,11,21,19.80
2006,06,27,11,22,19.80
2006,06,27,11,23,19.90
2006,06,27,11,24,20.10
2006,06,27,11,25,20.30
2006,06,27,11,26,20.40
2006,06,27,11,27,20.40
2006,06,27,11,28,20.30
2006,06,27,11,29,20.20
2006,06,27,11,30,20.20
2006,06,27,11,31,20.20
2006,06,27,11,32,20.30
2006,06,27,11,33,20.40
2006,06,27,11,34,20.60
2006,06,27,11,35,20.70
2006,06,27,11,36,20.80
2006,06,27,11,37,20.90
2006,06,27,11,38,21.00
2006,06,27,11,39,21.00
2006,06,27,11,40,21.10
2006,06,27,11,41,21.20
2006,06,27,11,42,21.20
2006,06,27,11,43,21.30
2006,06,27,11,44,21.30
2006,06,27,11,45,21.40
2006,06,27,11,46,21.30
2006,06,27,11,47,21.30
2006,06,27,11,48,21.20
2006,06,27,11,49,21.20
2006,06,27,11,50,21.20
2006,06,27,11,51,21.10
2006,06,27,11,52,21.00
2006,06,27,11,53,20.80
2006,06,27,11,54,20.80
2006,06,27,11,55,20.80
2006,06,27,11,56,20.80
2006,06,27,11,57,20.70
2006,06,27,11,58,20.70
2006,06,27,11,59,20.70
2006,06,27,12,00,20.80
2006,06,27,12,01,20.80
2006,06,27,12,02,20.90
2006,06,27,12,03,20.90
2006,06,27,12,04,20.90
2006,06,27,12,05,21.00
2006,06,27,12,06,21.00
2006,06,27,12,07,21.10
2006,06,27,12,08,21.20
2006,06,27,12,09,21.20
2006,06,27,12,10,21.30
2006,06,27,12,11,21.40
2006,06,27,12,12,21.40
2006,06,27,12,13,21.50
2006,06,27,12,14,21.60
2006,06,27,12,15,21.50
2006,06,27,12,16,21.40
2006,06,27,12,17,21.30
2006,06,27,12,18,21.30
2006,06,27,12,19,21.40
2006,06,27,12,20,21.50
2006,06,27,12,21,21.60
2006,06,27,12,22,21.70
2006,06,27,12,23,21.90
2006,06,27,12,24,21.90
2006,06,27,12,25,21.90
2006,06,27,12,26,21.90
2006,06,27,12,27,21.90
2006,06,27,12,28,21.90
2006,06,27,12,29,21.70
2006,06,27,12,30,21.60
2006,06,27,12,31,21.60
2006,06,27,12,32,21.60
2006,06,27,12,33,21.50
2006,06,27,12,34,21.40
2006,06,27,12,35,21.40
2006,06,27,12,36,21.40
2006,06,27,12,37,21.60
2006,06,27,12,38,21.70
2006,06,27,12,39,21.80
2006,06,27,12,40,21.80
2006,06,27,12,41,21.80
2006,06,27,12,42,21.60
2006,06,27,12,43,21.50
2006,06,27,12,44,21.30
2006,06,27,12,45,21.30
2006,06,27,12,46,21.30
2006,06,27,12,47,21.30
2006,06,27,12,48,21.40
2006,06,27,12,49,21.40
2006,06,27,12,50,21.30
2006,06,27,12,51,21.30
2006,06,27,12,52,21.30
2006,06,27,12,53,21.30
2006,06,27,12,54,21.30
2006,06,27,12,55,21.20
2006,06,27,12,56,21.10
2006,06,27,12,57,21.10
2006,06,27,12,58,21.10
2006,06,27,12,59,21.10
2006,06,27,13,00,21.30
2006,06,27,13,01,21.40
2006,06,27,13,02,21.40
2006,06,27,13,03,21.40
2006,06,27,13,04,21.40
2006,06,27,13,05,21.30
2006,06,27,13,06,21.40
2006,06,27,13,07,21.50
2006,06,27,13,08,21.50
2006,06,27,13,09,21.50
2006,06,27,13,10,21.40
2006,06,27,13,11,21.30
2006,06,27,13,12,21.10
2006,06,27,13,13,21.00
2006,06,27,13,14,21.00
2006,06,27,13,15,21.00
2006,06,27,13,16,21.10
2006,06,27,13,17,21.20
2006,06,27,13,18,21.30
2006,06,27,13,19,21.20
2006,06,27,13,20,21.20
2006,06,27,13,21,21.20
2006,06,27,13,22,21.30
2006,06,27,13,23,21.30
2006,06,27,13,24,21.30
2006,06,27,13,25,21.30
2006,06,27,13,26,21.30
2006,06,27,13,27,21.30
2006,06,27,13,28,21.30
2006,06,27,13,29,21.30
2006,06,27,13,30,21.30
2006,06,27,13,31,21.40
2006,06,27,13,32,21.50
2006,06,27,13,33,21.40
2006,06,27,13,34,21.50
2006,06,27,13,35,21.60
2006,06,27,13,36,21.50
2006,06,27,13,37,21.40
2006,06,27,13,38,21.50
2006,06,27,13,39,21.60
2006,06,27,13,40,21.60
2006,06,27,13,41,21.70
2006,06,27,13,42,21.60
2006,06,27,13,43,21.60
2006,06,27,13,44,21.60
2006,06,27,13,45,21.60
2006,06,27,13,46,21.60
2006,06,27,13,47,21.60
2006,06,27,13,48,21.60
2006,06,27,13,49,21.60
2006,06,27,13,50,21.60
2006,06,27,13,51,21.60
2006,06,27,13,52,21.60
2006,06,27,13,53,21.60
2006,06,27,13,54,21.60
2006,06,27,13,55,21.50
2006,06,27,13,56,21.40
2006,06,27,13,57,21.30
2006,06,27,13,58,21.30
2006,06,27,13,59,21.30
2006,06,27,14,00,21.30
2006,06,27,14,01,21.20
2006,06,27,14,02,21.20
2006,06,27,14,03,21.30
2006,06,27,14,04,21.30
2006,06,27,14,05,21.30
2006,06,27,14,06,21.30
2006,06,27,14,07,21.30
2006,06,27,14,08,21.20
2006,06,27,14,09,21.20
2006,06,27,14,10,21.20
2006,06,27,14,11,21.30
2006,06,27,14,12,21.30
2006,06,27,14,13,21.30
2006,06,27,14,14,21.30
2006,06,27,14,15,21.30
2006,06,27,14,16,21.30
2006,06,27,14,17,21.40
2006,06,27,14,18,21.40
2006,06,27,14,19,21.30
2006,06,27,14,20,21.40
2006,06,27,14,21,21.30
2006,06,27,14,22,21.30
2006,06,27,14,23,21.20
2006,06,27,14,24,21.00
2006,06,27,14,25,20.90
2006,06,27,14,26,20.90
2006,06,27,14,27,21.00
2006,06,27,14,28,21.00
2006,06,27,14,29,21.00
2006,06,27,14,30,21.10
2006,06,27,14,31,21.10
2006,06,27,14,32,21.10
2006,06,27,14,33,21.10
2006,06,27,14,34,21.00
2006,06,27,14,35,21.10
2006,06,27,14,36,21.10
2006,06,27,14,37,21.10
2006,06,27,14,38,21.00
2006,06,27,14,39,21.00
2006,06,27,14,40,21.00
2006,06,27,14,41,21.00
2006,06,27,14,42,21.10
2006,06,27,14,43,21.00
2006,06,27,14,44,21.10
2006,06,27,14,45,21.10
2006,06,27,14,46,21.10
2006,06,27,14,47,21.20
2006,06,27,14,48,21.30
2006,06,27,14,49,21.30
2006,06,27,14,50,21.30
2006,06,27,14,51,21.30
2006,06,27,14,52,21.30
2006,06,27,14,53,21.30
2006,06,27,14,54,21.20
2006,06,27,14,55,21.10
2006,06,27,14,56,21.20
2006,06,27,14,57,21.30
2006,06,27,14,58,21.30
2006,06,27,14,59,21.30
2006,06,27,15,00,21.30
2006,06,27,15,01,21.40
2006,06,27,15,02,21.50
2006,06,27,15,03,21.60
2006,06,27,15,04,21.60
2006,06,27,15,05,21.60
2006,06,27,15,06,21.50
2006,06,27,15,07,21.40
2006,06,27,15,08,21.40
2006,06,27,15,09,21.50
2006,06,27,15,10,21.60
2006,06,27,15,11,21.60
2006,06,27,15,12,21.60
2006,06,27,15,13,21.60
2006,06,27,15,14,21.60
2006,06,27,15,15,21.70
2006,06,27,15,16,21.80
2006,06,27,15,17,21.90
2006,06,27,15,18,21.90
2006,06,27,15,19,22.00
2006,06,27,15,20,22.00
2006,06,27,15,21,22.00
2006,06,27,15,22,22.00
2006,06,27,15,23,22.00
2006,06,27,15,24,22.00
2006,06,27,15,25,22.00
2006,06,27,15,26,22.00
2006,06,27,15,27,22.00
2006,06,27,15,28,22.00
2006,06,27,15,29,22.00
2006,06,27,15,30,22.00
2006,06,27,15,31,21.90
2006,06,27,15,32,21.70
2006,06,27,15,33,21.60
2006,06,27,15,34,21.60
2006,06,27,15,35,21.60
2006,06,27,15,36,21.60
2006,06,27,15,37,21.60
2006,06,27,15,38,21.70
2006,06,27,15,39,21.80
2006,06,27,15,40,21.90
2006,06,27,15,41,22.00
2006,06,27,15,42,22.10
2006,06,27,15,43,22.10
2006,06,27,15,44,22.10
2006,06,27,15,45,22.00
2006,06,27,15,46,22.00
2006,06,27,15,47,21.90
2006,06,27,15,48,22.00
2006,06,27,15,49,22.00
2006,06,27,15,50,22.00
2006,06,27,15,51,21.80
2006,06,27,15,52,21.80
2006,06,27,15,53,21.70
2006,06,27,15,54,21.70
2006,06,27,15,55,21.60
2006,06,27,15,56,21.60
2006,06,27,15,57,21.50
2006,06,27,15,58,21.30
2006,06,27,15,59,21.20
2006,06,27,16,00,21.10
2006,06,27,16,01,21.00
2006,06,27,16,02,20.90
2006,06,27,16,03,20.80
2006,06,27,16,04,20.70
2006,06,27,16,05,20.70
2006,06,27,16,06,20.70
2006,06,27,16,07,20.70
2006,06,27,16,08,20.70
2006,06,27,16,09,20.70
2006,06,27,16,10,20.70
2006,06,27,16,11,20.70
2006,06,27,16,12,20.70
2006,06,27,16,13,20.70
2006,06,27,16,14,20.60
2006,06,27,16,15,20.50
2006,06,27,16,16,20.40
2006,06,27,16,17,20.40
2006,06,27,16,18,20.40
2006,06,27,16,19,20.30
2006,06,27,16,20,20.20
2006,06,27,16,21,20.20
2006,06,27,16,22,20.20
2006,06,27,16,23,20.10
2006,06,27,16,24,20.00
2006,06,27,16,25,19.90
2006,06,27,16,26,19.80
2006,06,27,16,27,19.70
2006,06,27,16,28,19.70
2006,06,27,16,29,19.70
2006,06,27,16,30,19.70
2006,06,27,16,31,19.70
2006,06,27,16,32,19.70
2006,06,27,16,33,19.60
2006,06,27,16,34,19.60
2006,06,27,16,35,19.50
2006,06,27,16,36,19.60
2006,06,27,16,37,19.60
2006,06,27,16,38,19.50
2006,06,27,16,39,19.50
2006,06,27,16,40,19.50
2006,06,27,16,41,19.50
2006,06,27,16,42,19.50
2006,06,27,16,43,19.40
2006,06,27,16,44,19.20
2006,06,27,16,45,19.20
2006,06,27,16,46,19.10
2006,06,27,16,47,19.10
2006,06,27,16,48,19.10
2006,06,27,16,49,19.10
2006,06,27,16,50,19.00
2006,06,27,16,51,18.90
2006,06,27,16,52,18.90
2006,06,27,16,53,18.90
2006,06,27,16,54,19.00
2006,06,27,16,55,19.10
2006,06,27,16,56,19.10
2006,06,27,16,57,19.10
2006,06,27,16,58,19.10
2006,06,27,16,59,19.10
2006,06,27,17,00,19.20
2006,06,27,17,01,19.20
2006,06,27,17,02,19.20
2006,06,27,17,03,19.20
2006,06,27,17,04,19.10
2006,06,27,17,05,19.10
2006,06,27,17,06,19.20
2006,06,27,17,07,19.20
2006,06,27,17,08,19.10
2006,06,27,17,09,19.10
2006,06,27,17,10,19.10
2006,06,27,17,11,19.00
2006,06,27,17,12,18.90
2006,06,27,17,13,18.90
2006,06,27,17,14,18.90
2006,06,27,17,15,18.80
2006,06,27,17,16,18.80
2006,06,27,17,17,18.90
2006,06,27,17,18,18.80
2006,06,27,17,19,18.70